Weather Roundup
Issued by NWS Springfield, MO

Home | Current Version | Previous Version | Text Only | Print | Product List | Glossary On
Versions: 1 2 3 4 5 6 7 8 9 10 11 12 13 14 15 16 17 18 19 20 21 22 23 24 25 26 27 28 29 30 31 32 33 34 35 36 37 38 39 40 41 42 43 44 45 46 47 48 49 50
000
NZUS99 KSGF 041507
HRRSGF

HOURLY WEATHER
NATIONAL WEATHER SERVICE SPRINGFIELD MO
900 AM CST WED MAR 04 2015

......SGF CWA......

CITY           SKY/WX    TMP DP  RH WIND       PRES   REMARKS
SPRINGFIELD    LGT SNOW  25  22  88 N15       30.15R VSB 3/4 WCI  13
JOPLIN         LGT SNOW  22  18  85 N16G25    30.19R FOG     WCI   8
WEST PLAINS    FRZ RAIN  32  28  85 N15G23    30.08R FOG     WCI  22
ROLLA          LGT SNOW  21  11  65 N14       30.16R WCI   8
OSAGE BEACH    CLOUDY    21  18  86 NE12      30.23R VSB 1/4 WCI   9
BRANSON        RAIN      32  32 100 N12G17    30.08R WCI  23

......SURROUNDING SGF CWA......

CITY           SKY/WX    TMP DP  RH WIND       PRES   REMARKS
CHANUTE        CLOUDY    21  13  71 N17       30.26R WCI   7
PARSONS        LGT SNOW  22  17  81 N12G25    30.25R WCI  10
COFFEYVILLE    LGT SNOW  23  18  81 N17G28    30.24R VSB 3/4 WCI   9
EMPORIA        SNOW      19  15  84 N10       30.28R VSB 1/2 WCI   7
GROVE OK       LGT SNOW  30  30 100 N10G20    30.16R WCI  21
ROGERS AR      FRZ RAIN  31  29  92 N14       30.09R WCI  21
SILOAM SPRINGS CLOUDY    32  25  74 N14       30.09R WCI  22
HARRISON AR    RAIN      33  32  96 N8        30.07R FOG     WCI  26
NEAR YELLVILLE CLOUDY    36  30  80 N9        30.08R WCI  29

......KANSAS AND MISSOURI......

CITY           SKY/WX    TMP DP  RH WIND       PRES   REMARKS
KANSAS CTY INT PTSUNNY   21   8  57 N14G21    30.29R WCI   8
DOWNTOWN KC    CLOUDY    23   8  52 N13       30.31R WCI  11
COLUMBIA       CLOUDY    20   8  60 N17       30.23R WCI   5
SEDALIA        CLOUDY    21  10  62 N18       30.26R WCI   6
ST JOSEPH      MOSUNNY   20   9  62 N13       30.33R WCI   7
ST LOUIS       CLOUDY    22   9  57 N15       30.21R WCI   9
SPIRIT OF STL  CLOUDY    22   9  57 N16       30.21R WCI   8
WICHITA        LGT SNOW  20  15  81 N14G24    30.27R VSB 1   WCI   7
TOPEKA         CLOUDY    22  12  65 N12       30.32R WCI  10
OLATHE         LGT SNOW  19  15  84 N12       30.27R VSB 1   WCI   7

......TENNESSEE......

CITY           SKY/WX    TMP DP  RH WIND       PRES   REMARKS
MEMPHIS        LGT RAIN  52  50  93 N7        29.92R VSB 1/2
NASHVILLE      RAIN      51  50  96 N8        29.93R VSB 1

......ARKANSAS.......

CITY           SKY/WX    TMP DP  RH WIND       PRES   REMARKS
FAYETTEVILLE   LGT RAIN  33  32  96 NE8       30.08R FOG     WCI  26
FT SMITH       RAIN      41  37  86 N9        30.02R FOG
LITTLE ROCK    LGT RAIN  51  49  92 N8        29.96R FOG

......OKLAHOMA.......

CITY           SKY/WX    TMP DP  RH WIND       PRES   REMARKS
TULSA          FRZ RAIN  27  23  85 N21G28    30.17R FOG     WCI  13
PONCA CITY     CLOUDY    24  16  71 NE17      30.25R WCI  11
MCALESTER      RAIN      36  33  89 N20       30.04R FOG     WCI  25
OKLAHOMA CITY  CLOUDY    30  19  63 N18G30    30.11R WCI  18

......IOWA............

CITY           SKY/WX    TMP DP  RH WIND       PRES   REMARKS
DES MOINES     PTSUNNY   15  -2  46 NW12      30.29R WCI   2
QUAD CITIES    PTSUNNY   14   1  56 NW15      30.21R WCI  -1

......ILLINOIS........

CITY           SKY/WX    TMP DP  RH WIND       PRES   REMARKS
QUINCY         CLOUDY    16   3  56 NW16      30.24R WCI   1
CHICAGO        CLOUDY    18   9  68 NW14      30.07R WCI   4



USA.gov is the U.S. government's official web portal to all federal, state and local government web resources and services.